Location: Bukit Lungun
(2.6833°N, 113.9667°E)
Time: 13:28:08
(UTC+00:00)

COSMOS 2455 - Pass Details

Date: 02 March 2021
Orbit: 902 x 908 km, 67.1° (Epoch: 13 April)

Event Time Altitude Azimuth Distance (km) Brightness Sun altitude
Rises 12:07:09 0° 328° (NNW) 3,518 6.3 -22.9°
Reaches altitude 10° 12:09:46 10° 322° (NW) 2,578 5.6 -23.5°
Maximum altitude 12:15:24 44° 251° (WSW) 1,236 3.9 -24.9°
Drops below altitude 10° 12:21:03 10° 181° (S) 2,581 5.3 -26.3°
Sets 12:23:41 0° 174° (S) 3,523 5.9 -27.0°
